Weather History for KCWC - September, 2013

Change the Weather History Date:

Friday, September 27, 2013

  Actual Average (KSPS) Record (KSPS)
Temperature  
Mean Temperature 78 °F 71 °F  
Max Temperature 90 °F 84 °F 103 °F (1977)
Min Temperature 67 °F 59 °F 38 °F (1942)
Degree Days  
Heating Degree Days 0 1  
Month to date heating degree days 9  
Since 1 July heating degree days 9  
Cooling Degree Days 13 7  
Month to date cooling degree days 315  
Year to date cooling degree days 2260  
Growing Degree Days 28 (Base 50)    
Moisture  
Dew Point 63 °F    
Average Humidity 58    
Maximum Humidity 81    
Minimum Humidity 41    
Precipitation  
Precipitation 0.00 in 0.08 in 6.19 in (1980)
Month to date precipitation 2.58  
Year to date precipitation 22.31  
Sea Level Pressure  
Sea Level Pressure 29.86 in    
Wind  
Wind Speed 11 mph (SSE)    
Max Wind Speed 22 mph    
Max Gust Speed 30 mph    
Visibility 10 miles    
Events      
T = Trace of Precipitation, MM = Missing Value Source: NWS Daily Summary

Daily Weather History Graph

Daily Weather History Graph

Search for Another Location

Airport or City:

Trip Planner

Search our weather history database for the weather conditions in past years. The results will help you decide how hot, cold, wet, or windy it might be!

Date:

Astronomy

Sep. 27, 2013 Rise Set
Actual Time 7:25 AM CDT 7:23 PM CDT
Civil Twilight 7:00 AM CDT 7:48 PM CDT
Nautical Twilight 6:31 AM CDT 8:17 PM CDT
Astronomical Twilight 6:02 AM CDT 8:46 PM CDT
Moon 12:37 AM CDT (9/27) 2:48 PM CDT (9/27)
Length of Visible Light 12h 47m
Length of Day
11h 57m
Last Quarter, 45% of the Moon is Illuminated
Sep 27
Last Quarter
Oct 4
New
Oct 11
First Quarter
Oct 18
Full
Oct 26
Last Quarter

Hourly Weather History & Observations

Time (CDT) Temp. Heat Index Dew Point Humidity Pressure Visibility Wind Dir Wind Speed Gust Speed Precip Events Conditions
12:15 AM 71.8 °F - 53.1 °F 52% 29.87 in 10.0 mi SSE 6.9 mph - N/A   Clear
12:35 AM 72.7 °F - 52.3 °F 49% 29.88 in 10.0 mi SE 8.1 mph - N/A   Clear
12:55 AM 72.1 °F - 52.3 °F 50% 29.87 in 10.0 mi SE 8.1 mph - N/A   Clear
1:15 AM 72.1 °F - 52.3 °F 50% 29.87 in 10.0 mi SE 8.1 mph - N/A   Clear
1:35 AM 71.6 °F - 52.7 °F 51% 29.88 in 10.0 mi SE 8.1 mph - N/A   Clear
1:55 AM 70.7 °F - 52.9 °F 53% 29.88 in 10.0 mi SE 9.2 mph - N/A   Clear
2:15 AM 70.2 °F - 53.2 °F 55% 29.88 in 10.0 mi SE 8.1 mph - N/A   Clear
2:35 AM 69.8 °F - 53.6 °F 56% 29.88 in 10.0 mi SE 8.1 mph - N/A   Clear
2:55 AM 69.4 °F - 54.1 °F 58% 29.88 in 10.0 mi SE 8.1 mph - N/A   Clear
3:15 AM 69.3 °F - 54.5 °F 59% 29.88 in 10.0 mi SE 9.2 mph - N/A   Clear
3:35 AM 69.8 °F - 54.9 °F 59% 29.87 in 10.0 mi SE 9.2 mph - N/A   Clear
3:55 AM 69.6 °F - 55.4 °F 61% 29.88 in 10.0 mi SSE 8.1 mph - N/A   Clear
4:15 AM 68.7 °F - 55.6 °F 63% 29.88 in 10.0 mi SSE 6.9 mph - N/A   Clear
4:35 AM 68.2 °F - 55.8 °F 64% 29.87 in 10.0 mi SSE 8.1 mph - N/A   Clear
4:55 AM 68.0 °F - 55.9 °F 65% 29.88 in 10.0 mi SSE 6.9 mph - N/A   Clear
5:15 AM 67.6 °F - 56.7 °F 68% 29.88 in 10.0 mi SSE 8.1 mph - N/A   Clear
5:35 AM 67.5 °F - 57.6 °F 70% 29.88 in 10.0 mi SSE 6.9 mph - N/A   Clear
5:55 AM 67.1 °F - 58.3 °F 73% 29.88 in 10.0 mi SSE 6.9 mph - N/A   Clear
6:15 AM 68.0 °F - 59.2 °F 73% 29.89 in 10.0 mi SSE 6.9 mph - N/A   Clear
6:35 AM 68.4 °F - 59.9 °F 74% 29.89 in 10.0 mi SSE 8.1 mph - N/A   Clear
6:55 AM 68.4 °F - 60.4 °F 76% 29.89 in 10.0 mi SSE 6.9 mph - N/A   Clear
7:15 AM 68.0 °F - 61.0 °F 78% 29.90 in 10.0 mi SSE 6.9 mph - N/A   Clear
7:35 AM 68.0 °F - 61.7 °F 80% 29.90 in 10.0 mi SSE 8.1 mph - N/A   Clear
7:55 AM 68.4 °F - 62.4 °F 81% 29.90 in 10.0 mi SSE 6.9 mph - N/A   Clear
8:15 AM 69.6 °F - 63.5 °F 81% 29.91 in 10.0 mi SSE 6.9 mph - N/A   Clear
8:35 AM 71.8 °F - 64.8 °F 78% 29.91 in 10.0 mi SSE 9.2 mph - N/A   Clear
8:55 AM 73.8 °F - 65.8 °F 76% 29.91 in 10.0 mi SSE 10.4 mph - N/A   Clear
9:15 AM 75.2 °F - 66.6 °F 74% 29.91 in 10.0 mi SSE 12.7 mph - N/A   Clear
9:35 AM 77.2 °F - 67.1 °F 71% 29.92 in 10.0 mi South 17.3 mph 20.7 mph N/A   Clear
9:55 AM 78.8 °F - 67.5 °F 68% 29.92 in 10.0 mi South 17.3 mph 21.9 mph N/A   Clear
10:15 AM 79.9 °F - 67.5 °F 66% 29.92 in 10.0 mi SSE 19.6 mph 23.0 mph N/A   Clear
10:35 AM 81.1 °F 83.7 °F 67.3 °F 63% 29.92 in 10.0 mi South 16.1 mph 20.7 mph N/A   Clear
10:55 AM 81.9 °F 84.2 °F 66.7 °F 60% 29.92 in 10.0 mi South 16.1 mph 25.3 mph N/A   Clear
11:15 AM 83.7 °F 86.0 °F 66.2 °F 56% 29.91 in 10.0 mi South 16.1 mph - N/A   Clear
11:35 AM 84.7 °F 86.6 °F 65.3 °F 52% 29.91 in 10.0 mi South 18.4 mph 23.0 mph N/A   Clear
11:55 AM 86.0 °F 87.6 °F 64.8 °F 49% 29.90 in 5.0 mi SSE 18.4 mph 21.9 mph N/A   Haze
12:15 PM 86.4 °F 87.0 °F 63.0 °F 45% 29.90 in 7.0 mi SSE 17.3 mph 25.3 mph N/A   Clear
12:35 PM 87.3 °F 88.3 °F 63.3 °F 45% 29.89 in 10.0 mi SSE 20.7 mph 24.2 mph N/A   Clear
12:55 PM 87.8 °F 88.8 °F 63.7 °F 44% 29.88 in 10.0 mi SSE 18.4 mph 25.3 mph N/A   Scattered Clouds
1:15 PM 87.8 °F 89.4 °F 64.6 °F 46% 29.88 in 10.0 mi South 18.4 mph - N/A   Scattered Clouds
1:35 PM 88.2 °F 89.9 °F 64.9 °F 46% 29.87 in 10.0 mi SSE 17.3 mph 25.3 mph N/A   Scattered Clouds
1:55 PM 88.9 °F 90.7 °F 65.3 °F 45% 29.86 in 10.0 mi SSE 19.6 mph 26.5 mph N/A   Scattered Clouds
2:15 PM 89.1 °F 90.6 °F 64.8 °F 44% 29.85 in 10.0 mi SSE 21.9 mph 27.6 mph N/A   Scattered Clouds
2:35 PM 88.9 °F 90.7 °F 64.9 °F 45% 29.84 in 10.0 mi SSE 21.9 mph 27.6 mph N/A   Clear
2:55 PM 89.1 °F 90.6 °F 64.2 °F 44% 29.83 in 10.0 mi SSE 20.7 mph - N/A   Scattered Clouds
3:15 PM 89.4 °F 90.5 °F 63.9 °F 42% 29.83 in 10.0 mi SSE 19.6 mph 25.3 mph N/A   Scattered Clouds
3:35 PM 89.2 °F 90.2 °F 63.1 °F 42% 29.82 in 10.0 mi SSE 19.6 mph 25.3 mph N/A   Scattered Clouds
3:55 PM 89.8 °F 91.4 °F 64.4 °F 43% 29.81 in 10.0 mi SSE 18.4 mph 26.5 mph N/A   Scattered Clouds
4:15 PM 89.2 °F 90.9 °F 64.6 °F 44% 29.81 in 10.0 mi SSE 17.3 mph 24.2 mph N/A   Scattered Clouds
4:35 PM 89.8 °F 91.4 °F 64.4 °F 43% 29.80 in 7.0 mi SSE 21.9 mph 29.9 mph N/A   Clear
4:55 PM 89.4 °F 91.2 °F 64.8 °F 44% 29.80 in 10.0 mi SE 18.4 mph 26.5 mph N/A   Scattered Clouds
5:15 PM 89.2 °F 90.6 °F 64.2 °F 43% 29.80 in 10.0 mi SSE 19.6 mph 29.9 mph N/A   Scattered Clouds
5:35 PM 89.8 °F 90.7 °F 63.5 °F 41% 29.80 in 10.0 mi SSE 17.3 mph 24.2 mph N/A   Scattered Clouds
5:55 PM 88.5 °F 90.1 °F 64.6 °F 45% 29.80 in 10.0 mi SSE 21.9 mph 29.9 mph N/A   Scattered Clouds
6:15 PM 88.2 °F 90.3 °F 65.3 °F 47% 29.80 in 10.0 mi SSE 20.7 mph 27.6 mph N/A   Scattered Clouds
6:35 PM 86.9 °F 88.9 °F 65.7 °F 49% 29.80 in 10.0 mi SSE 21.9 mph 27.6 mph N/A   Scattered Clouds
6:55 PM 86.4 °F 88.7 °F 66.2 °F 51% 29.80 in 10.0 mi SSE 19.6 mph 25.3 mph N/A   Clear
7:15 PM 85.3 °F 87.6 °F 66.2 °F 53% 29.80 in 10.0 mi SSE 18.4 mph 21.9 mph N/A   Clear
7:35 PM 84.2 °F 86.8 °F 66.7 °F 56% 29.80 in 10.0 mi SSE 12.7 mph - N/A   Clear
7:55 PM 83.3 °F 85.9 °F 67.1 °F 58% 29.80 in 10.0 mi SE 13.8 mph - N/A   Clear
8:15 PM 82.6 °F 85.3 °F 67.5 °F 60% 29.81 in 10.0 mi SSE 16.1 mph 19.6 mph N/A   Clear
8:35 PM 82.4 °F 85.2 °F 67.6 °F 61% 29.81 in 10.0 mi SSE 16.1 mph 21.9 mph N/A   Clear
8:55 PM 81.5 °F 84.2 °F 67.8 °F 63% 29.81 in 10.0 mi SSE 13.8 mph 19.6 mph N/A   Clear
9:15 PM 81.3 °F 84.1 °F 68.0 °F 64% 29.81 in 10.0 mi SE 11.5 mph - N/A   Clear
9:35 PM 81.0 °F 83.8 °F 68.0 °F 65% 29.82 in 10.0 mi SE 11.5 mph - N/A   Clear
9:55 PM 80.8 °F 83.5 °F 68.0 °F 65% 29.83 in 10.0 mi SSE 13.8 mph 21.9 mph N/A   Clear
10:15 PM 80.6 °F 83.2 °F 68.0 °F 65% 29.83 in 10.0 mi SE 11.5 mph 17.3 mph N/A   Clear
10:35 PM 80.6 °F 83.2 °F 68.0 °F 65% 29.84 in 10.0 mi SE 10.4 mph - N/A   Clear
10:55 PM 80.4 °F 83.1 °F 68.0 °F 66% 29.85 in 10.0 mi SE 11.5 mph - N/A   Clear
11:15 PM 80.1 °F 82.8 °F 68.5 °F 68% 29.85 in 10.0 mi SE 11.5 mph 17.3 mph N/A   Clear
11:35 PM 80.1 °F 82.9 °F 68.9 °F 69% 29.85 in 10.0 mi SE 12.7 mph - N/A   Clear
11:55 PM 80.1 °F 82.9 °F 69.3 °F 69% 29.85 in 10.0 mi SSE 11.5 mph 20.7 mph N/A   Clear